Location: Beccas
(43.4309°N, 0.1528°E)
Time: 23:43:22
(UTC+00:00)

Cosmos 1656 - Pass Details

Date: 15 October 2021
Orbit: 799 x 848 km, 71.1° (Epoch: 25 November)

Event Time Altitude Azimuth Distance (km) Brightness Sun altitude
Rises 17:43:03 0° 208° (SSW) 3,347 7.3 -5.7°
Reaches altitude 10° 17:45:29 10° 210° (SSW) 2,411 6.6 -6.1°
Maximum altitude 17:51:00 75° 295° (WNW) 844 3.9 -7.1°
Drops below altitude 10° 17:56:29 10° 22° (NNE) 2,397 5.8 -8.1°
Sets 17:58:55 0° 24° (NNE) 3,326 6.5 -8.5°
